Regional Weather Roundup
Issued by NWS

Home | Current Version | Previous Version | Text Only | Print | Product List | Glossary On
Versions: 1 2 3 4 5 6 7 8 9 10 11 12 13 14 15 16 17 18 19 20 21 22 23 24 25 26 27 28 29 30 31 32 33 34 35 36 37 38 39 40 41 42 43 44 45 46 47 48 49 50
000
ASUS43 KLSX 250659
RWRMO

WEATHER SUMMARY FOR MISSOURI
NATIONAL WEATHER SERVICE SPRINGFIELD MO
100 AM CST SUN JAN 25 2015

NOTE: "FAIR" INDICATES FEW OR NO CLOUDS BELOW 12,000 FEET WITH NO
       SIGNIFICANT WEATHER AND/OR OBSTRUCTIONS TO VISIBILITY.
       CURRENT SKY AND/OR WEATHER CONDITIONS ARE NOT AVAILABLE FOR
       CHILLICOTHE AND FARMINGTON.

MOZ001>031-035>038-043-044-053-054-250800-
...NORTHERN AND WESTERN MISSOURI...

CITY           SKY/WX    TMP DP  RH WIND       PRES   REMARKS
KANSAS CTY INT LGT RAIN  45  43  93 W13       29.65S
KANSAS C DTWN  LGT RAIN  48  43  82 W9        29.65F
LEE`S SUMMIT   LGT RAIN  46  42  86 SW9       29.65F
ST JOSEPH      LGT RAIN  46  43  89 W13       29.63F
CHILLICOTHE      N/A     44  41  89 SW5       29.61F
KIRKSVILLE     CLOUDY    44  31  60 SW5       29.59F

$$
MOZ066>068-077>081-088>096-101>105-250800-
...SOUTHWEST MISSOURI...

CITY           SKY/WX    TMP DP  RH WIND       PRES   REMARKS
SPRINGFIELD    CLOUDY    50  32  50 SW13      29.73F
JOPLIN         CLOUDY    50  32  50 SW14      29.75F

$$
MOZ032>034-039>042-045>050-055>058-069>072-250800-
...CENTRAL MISSOURI...

CITY           SKY/WX    TMP DP  RH WIND       PRES   REMARKS
COLUMBIA       LGT RAIN  49  40  71 W18       29.65F
JEFFERSON CITY LGT RAIN  51  39  63 W13G25    29.67F
ROLLA          CLOUDY    49  31  49 SW13      29.67F
SEDALIA        LGT RAIN  46  43  89 SW8       29.66F
OSAGE BEACH    CLOUDY    50  32  50 W8        29.69F

$$
MOZ051-052-059>065-250800-
...EAST CENTRAL MISSOURI...

CITY           SKY/WX    TMP DP  RH WIND       PRES   REMARKS
ST LOUIS INTL  CLOUDY    51  32  48 SW10      29.65F
SPIRIT OF STL  CLOUDY    51  32  48 SW10      29.65F
ST CHARLES     CLOUDY    38  33  82 S3        29.64F

$$
MOZ072>076-082>087-097>100-106>115-250800-
...SOUTH CENTRAL AND SOUTHEAST MISSOURI...

CITY           SKY/WX    TMP DP  RH WIND       PRES   REMARKS
CAPE GIRARDEAU CLOUDY    41  34  76 S6        29.78F
FARMINGTON     CLOUDY    48  30  49 MISG      29.74F
POPLAR BLUFF   MOCLDY    40  32  73 S6        29.77F
WEST PLAINS    CLOUDY    45  30  55 SW7       29.76F

$$



USA.gov is the U.S. government's official web portal to all federal, state and local government web resources and services.